EHI
0 0 0 0 0 0 0 0 0 0 0 0 0 0 0 0 0 0 0 0 0 0 0 0 0 0 0 0 0 0 0 0 0 0 0 0 0 0 0 0 0 0 0
0 0 0 0 0 0 0 0 0 0 0 0 0 0 0 0 0 0 0 0 0 0 0 0 0 0 0 0 0 0 0 0 0 0 0 0 0 0 0 0 0 0 0
0 0 0 0 0 0 0 0 0 0 0 0 0 0 0 0 0 0 0 0 0 0 0 0 0 0 0 0 0 0 0 0 0 0 0 0 0 0 0 0 0 0 0
0 0 0 0 0 0 0 0 0 0 0 0 0 0 0 0 0 0 0 0 0 0 0 0 0 0 0 0 0 0 0 0 0 0 0 0 0 0 0 0 0 0 0
0 0 0 0 0 0 0 0 0 0 0 0 0 0 0 0 0 0 0 0 0 0 0 0 0 0 0 0 0 0 0 0 0 0 0 0 0 0 0 0 0 0 0
0 0 0 0 0 0 0 0 0 0 0 0 0 0 0 0 0 0 0 0 0 0 0 0 0 0 0 0 0 0 0 0 0 0 0 0 0 0 0 0 0 0 0
0 0 0 0 0 0 0 0 0 0 0 0 0 0 0 0 0 0 0 0 0 0 0 0 0 0 0 0 0 0 0 0 0 0 0 0 0 0 0 0 0 0 0
0 0 0 0 0 0 0 0 0 0 0 0 0 0 0 0 0 0 0 0 0 0 0 0 0 0 0 0 0 0 0 0 0 0 0 0 0 0 0 0 0 0 0
0 0 0 0 0 0 0 0 0 0 0 0 0 0 0 0 0 0 0 0 0 0 0 0 0 0 0 0 0 0 0 0 0 0 0 0 0 0 0 0 0 0 0
0 0 0 0 0 0 0 0 0 0 0 0 0 0 0 0 0 0 0 0 0 0 0 0 0 0 0 0 0 0 0 0 0 0 0 0 0 0 0 0 0 0 0
0 0 0 0 0 0 0 0 0 0 0 0 0 0 0 0 0 0 0 0 0 0 0 0 0 0 0 0 0 0 0 0 0 0 0 0 0 0 0 0 0 0 0
0 0 0 0 0 0 0 0 0 0 0 0 0 0 0 0 0 0 0 0 0 0 0 0 0 0 0 0 0 0 0 0 0 0 0 0 0 0 0 0 0 0 0
0 0 0 0 0 0 0 0 0 0 0 0 0 0 0 0 0 0 0 0 0 0 0 0 0 0 0 0 0 0 0 0 0 0 0 0 0 0 0 0 0 0 0
0 0 0 0 0 0 0 0 0 0 0 0 0 0 0 0 0 0 0 0 0 0 0 0 0 0 0 0 0 0 0 0 0 0 0 0 0 0 0 0 0 0 0
0 0 0 0 0 0 0 0 0 0 0 0 0 0 0 0 0 0 0 0 0 0 0 0 0 0 0 0 0 0 0 0 0 0 0 0 0 0 0 0 0 0 0
0 0 0 0 0 0 0 0 0 0 0 0 0 0 0 0 0 0 0 0 0 0 0 0 0 0 0 0 0 0 0 0 0 0 0 0 0 0 0 0 0 0 0
0 0 0 0 0 0 0 0 0 0 0 0 0 0 0 0 0 0 0 0 0 0 0 0 0 0 0 0 0 0 0 0 0 0 0 0 0 0 0 0 0 0 0
0 0 0 0 0 0 0 0 0 0 0 0 0 0 0 0 0 0 0 0 0 0 0 0 0 0 0 0 0 0 0 0 0 0 0 0 0 0 0 0 0 0 0
0 0 0 0 0 0 0 0 0 0 0 0 0 0 0 0 0 0 0 0 0 0 0 0 0 0 0 0 0 0 0 0 0 0 0 0 0 0 0 0 0 0 0
0 0 0 0 0 0 0 0 0 0 0 0 0 0 0 0 0 0 0 0 0 0 0 0 0 0 0 0 0 0 0 0 0 0 0 0 0 0 0 0 0 0 0
0 0 0 0 0 0 0 0 0 0 0 0 0 0 0 0 0 0 0 0 0 0 0 0 0 0 0 0 0 0 0 0 0 0 0 0 0 0 0 0 0 0 0
0 0 0 0 0 0 0 0 0 0 0 0 0 0 0 0 0 0 0 0 0 0 0 0 0 0 0 0 0 0 0 0 0 0 0 0 0 0 0 0 0 0 0
0 0 0 0 0 0 0 0 0 0 0 0 0 0 0 0 0 0 0 0 0 0 0 0 0 0 0 0 0 0 0 0 0 0 0 0 0 0 0 0 0 0 0
0 0 0 0 0 0 0 0 0 0 0 0 0 0 0 0 0 0 0 0 0 0 0 0 0 0 0 0 0 0 0 0 0 0 0 0 0 0 0 0 0 0 0
0 0 0 0 0 0 0 0 0 0 0 0 0 0 0 0 0 0 0 0 0 0 0 0 0 0 0 0 0 0 0 0 0 0 0 0 0 0 0 0 0 0 0
0 0 0 0 0 0 0 0 0 0 0 0 0 0 0 0 0 0 0 0 0 0 0 0 0 0 0 0 0 0 0 0 0 0 0 0 0 0 0 0 0 0 0
Wind_Speed
12 12 12 11 10 10 9 8 7 6 6 5 4 3 2 2 2 2 3 3 4 5 5 5 6 6 5 5 5 6 7 8 15 16 11 9 9 10 12 10 11 12 13
12 13 12 11 10 10 8 7 7 6 5 4 4 3 2 2 3 3 4 5 5 6 6 6 7 6 7 6 6 7 8 9 12 19 15 12 12 11 12 11 12 12 10
13 13 12 10 10 9 8 7 6 6 5 4 3 3 2 3 3 4 4 5 6 6 6 6 7 7 8 7 8 9 8 10 9 13 16 14 12 10 12 12 11 10 13
12 12 11 9 9 8 7 6 6 5 5 3 2 2 3 4 4 5 5 5 5 5 5 6 7 8 9 9 9 9 8 9 10 12 14 13 12 10 9 11 13 9 11
12 11 10 8 8 7 7 6 5 5 4 3 2 3 3 3 4 6 5 5 5 5 6 7 8 13 16 14 12 10 10 10 11 12 13 13 12 11 12 12 15 14 11
12 11 9 9 8 7 6 6 5 4 3 2 3 3 4 4 11 14 11 5 4 5 7 8 9 11 15 21 25 24 22 17 15 13 12 13 15 14 13 14 15 16 15
11 10 9 8 8 6 6 5 4 3 2 2 3 4 5 7 13 15 16 8 5 6 8 9 10 11 17 11 18 23 20 22 22 16 14 15 16 15 16 18 16 16 17
10 9 8 8 7 6 5 5 3 2 2 2 3 4 5 7 14 16 17 7 6 7 8 9 10 10 12 17 14 13 10 10 16 13 11 13 14 13 14 15 16 17 16
10 9 7 8 7 6 5 3 2 1 2 2 3 4 5 8 14 16 17 6 6 8 8 8 10 10 20 26 17 13 12 11 17 21 23 23 27 27 21 13 12 13 15
9 8 7 7 7 6 4 2 1 1 2 3 4 4 5 6 13 17 19 5 7 7 7 7 14 19 24 26 14 10 13 14 13 13 15 17 15 16 21 13 11 12 14
9 9 8 7 6 5 3 2 1 2 3 4 5 6 6 8 12 17 19 8 7 8 8 7 8 23 26 26 21 10 17 19 11 11 12 11 11 9 10 10 10 11 13
10 9 7 6 5 4 4 2 2 3 4 4 5 6 5 6 10 15 19 18 17 9 9 8 11 24 26 24 17 19 24 19 9 10 11 11 11 11 11 12 14 13 13
10 8 6 6 4 3 3 2 2 3 3 4 4 5 6 5 8 17 19 21 22 12 9 19 23 24 22 15 18 22 18 9 10 10 11 11 10 11 12 11 12 12 14
9 7 5 4 3 3 2 2 2 3 4 5 5 5 6 6 6 7 7 9 14 12 10 14 20 19 16 16 15 12 9 9 11 10 11 11 11 10 10 10 12 12 12
7 5 4 4 3 2 2 2 3 3 4 6 4 5 7 7 10 20 14 9 9 11 13 6 7 8 9 9 9 9 9 9 10 10 10 11 12 11 11 9 9 11 11
6 4 3 2 2 2 3 4 6 7 12 13 13 13 10 14 21 21 21 21 22 21 13 8 9 9 10 10 11 11 11 10 10 10 10 10 11 11 12 11 10 10 11
6 4 2 2 2 2 3 3 5 7 10 13 15 17 17 19 20 20 21 21 19 17 8 7 8 9 10 10 10 11 11 11 10 10 10 10 10 11 11 11 11 11 11
5 4 3 2 1 2 3 3 4 5 7 7 11 17 19 19 20 20 20 16 10 9 6 8 9 9 10 10 10 11 11 11 10 10 10 10 10 10 11 11 10 11 12
4 2 2 1 2 2 3 3 4 5 6 7 7 9 15 17 18 17 16 7 8 9 8 9 9 10 10 10 10 11 11 11 11 11 11 11 10 10 10 10 10 16 13
3 5 3 2 2 3 3 4 4 5 6 6 8 8 9 10 7 9 8 7 7 8 9 10 10 10 10 10 10 10 11 11 11 10 10 10 10 9 10 12 10 10 9
2 3 5 3 2 3 4 4 5 5 6 7 7 11 17 9 7 8 8 8 8 9 10 10 10 11 10 10 10 11 12 12 11 11 10 10 10 10 10 9 10 9 8
2 2 2 2 3 3 4 4 5 6 7 8 8 10 17 9 7 8 8 9 9 9 9 10 10 10 10 10 11 11 12 12 12 11 11 11 10 10 9 9 8 7 6
2 2 2 2 3 6 6 5 5 6 7 7 8 9 9 8 8 9 9 10 10 10 10 10 11 11 11 10 11 11 12 13 12 13 13 12 10 9 8 7 7 6 5
2 2 3 3 3 3 4 5 6 7 8 8 8 9 9 9 10 10 10 10 10 11 11 10 11 15 19 15 12 11 12 13 14 12 14 11 9 7 6 5 5 5 4
2 2 3 3 4 4 5 6 6 7 8 8 8 9 9 10 10 10 10 10 11 12 14 14 11 13 17 20 19 16 19 25 20 11 7 6 7 6 5 5 3 3 3
2 3 3 3 4 4 5 6 6 7 7 8 8 9 9 10 10 10 10 10 11 12 14 13 14 18 21 17 18 21 24 22 17 14 7 5 5 5 4 3 3 3 3
Wind_Direction
121 118 117 113 111 108 107 107 107 102 99 95 89 76 53 23 350 340 320 310 308 299 294 287 278 276 270 263 258 258 260 265 283 295 294 292 285 282 288 276 276 274 276
121 118 115 113 111 108 107 107 106 102 96 94 87 69 36 2 338 330 315 312 300 296 295 294 289 291 280 273 267 265 266 263 276 292 299 300 292 288 287 282 290 288 280
121 118 116 114 112 111 111 109 105 102 94 83 76 54 11 340 325 311 298 294 291 289 292 293 290 289 285 279 274 273 272 277 277 287 294 296 294 292 293 292 287 281 283
120 119 118 118 117 116 112 107 103 101 94 79 60 28 351 324 308 298 294 292 291 293 293 288 285 284 282 280 282 275 283 289 285 285 289 294 295 295 296 301 300 287 285
120 118 119 118 115 111 107 104 99 92 86 69 38 6 343 318 308 309 299 295 294 292 289 283 284 298 303 303 305 305 300 294 293 294 297 301 303 307 304 302 300 299 287
121 121 122 119 114 109 107 103 95 84 67 39 13 349 336 330 322 325 326 303 288 289 294 291 290 296 299 311 311 307 303 302 303 302 304 303 302 301 302 301 302 301 299
121 123 123 119 113 109 106 98 88 76 46 9 347 337 323 315 325 328 324 320 297 289 290 294 301 303 311 296 295 300 303 304 306 304 298 296 298 300 301 301 300 298 296
122 122 121 117 112 107 99 89 77 63 21 345 327 323 317 317 330 327 323 326 295 284 283 285 289 293 296 303 302 307 301 297 298 298 287 290 295 297 296 299 298 297 293
124 123 121 118 115 108 96 85 72 34 353 325 315 319 316 314 327 325 327 305 291 288 286 289 299 298 303 312 316 309 305 302 308 306 304 305 306 307 307 305 303 302 300
126 119 113 113 113 108 102 90 58 6 330 324 320 315 309 304 317 326 325 300 298 298 293 286 304 310 312 318 319 312 312 309 309 311 310 306 301 298 304 302 299 297 299
116 110 106 105 108 108 99 80 38 0 345 334 319 311 304 307 320 325 323 320 306 308 310 305 299 314 318 322 324 317 307 314 319 315 308 303 302 301 302 300 294 290 292
111 107 103 99 97 97 87 62 27 6 345 330 317 312 299 299 314 318 323 323 322 316 311 307 308 318 324 326 324 315 318 326 318 309 306 307 308 307 305 302 296 289 279
108 105 104 97 84 81 74 37 6 355 335 315 306 305 306 302 307 318 320 322 324 321 309 314 319 324 327 324 316 320 326 319 309 308 308 307 303 297 300 301 300 295 288
110 108 104 97 80 51 39 23 352 326 315 308 307 307 306 304 300 297 297 310 319 318 311 314 323 324 321 317 318 319 314 307 311 308 306 303 303 302 304 306 309 312 309
106 103 95 84 70 33 6 330 313 275 284 308 298 296 310 309 311 322 327 321 320 317 324 323 320 319 318 317 315 313 313 314 313 308 306 307 308 308 308 309 306 310 308
106 98 88 74 46 23 348 326 320 319 322 323 323 322 316 316 321 327 328 328 330 330 333 324 318 316 316 316 316 315 314 312 311 309 306 304 306 307 308 309 309 309 310
106 101 84 65 31 356 335 325 321 323 323 325 328 328 326 325 328 329 330 333 333 334 329 314 311 311 310 310 309 308 308 308 307 304 302 303 304 304 305 308 311 312 311
92 82 75 52 4 330 314 306 302 308 316 316 323 326 328 328 328 331 335 338 328 328 315 310 309 308 308 307 306 306 305 306 306 304 302 301 301 302 304 306 308 310 312
85 69 55 24 346 321 310 305 300 301 303 307 311 318 327 325 326 331 338 329 316 317 315 310 307 305 304 303 303 302 301 301 301 302 301 300 301 301 301 302 304 309 314
64 39 37 18 345 327 317 310 309 309 310 311 314 318 318 319 325 327 327 315 315 313 311 308 305 302 302 301 301 301 301 300 301 300 299 299 299 297 298 300 302 307 310
58 21 14 8 339 322 312 311 314 312 311 311 311 314 323 327 321 316 316 316 315 311 309 306 304 302 300 299 299 299 298 298 298 297 297 297 298 298 297 296 299 302 306
51 21 2 343 330 318 318 319 316 313 311 310 312 316 324 325 312 312 314 313 309 305 304 302 299 297 296 297 298 298 297 296 296 296 296 296 296 294 294 295 298 305 311
44 19 359 340 326 329 334 320 316 314 312 312 313 316 319 319 318 315 312 311 309 306 305 302 298 297 297 296 293 290 288 289 289 289 290 290 291 291 294 298 304 311 317
38 13 347 330 323 320 317 316 316 317 318 316 316 316 317 317 314 311 310 308 308 306 303 301 298 297 298 301 299 294 288 286 286 283 283 285 293 298 302 307 311 317 322
23 355 336 324 320 318 316 314 316 317 316 314 314 314 314 313 310 309 308 307 306 304 304 305 301 301 302 304 302 299 298 303 309 311 307 310 309 310 311 318 327 336 346
358 336 322 314 309 308 309 311 311 310 309 309 309 309 309 308 307 307 307 306 308 308 307 306 304 305 306 305 303 306 312 320 331 341 341 318 319 325 336 348 357 4 8